Regional Weather Roundup
Issued by NWS

Home | Current Version | Previous Version | Text Only | Print | Product List | Glossary On
Versions: 1 2 3 4 5 6 7 8 9 10 11 12 13 14 15 16 17 18 19 20 21 22 23 24 25 26 27 28 29 30 31 32 33 34 35 36 37 38 39 40 41 42 43 44 45 46 47 48 49 50
000
ASUS43 KLSX 052107
RWRMO

WEATHER SUMMARY FOR MISSOURI
NATIONAL WEATHER SERVICE SPRINGFIELD MO
300 PM CST MON DEC 05 2016

NOTE: "FAIR" INDICATES FEW OR NO CLOUDS BELOW 12,000 FEET WITH NO
       SIGNIFICANT WEATHER AND/OR OBSTRUCTIONS TO VISIBILITY.
       CURRENT SKY AND/OR WEATHER CONDITIONS ARE NOT AVAILABLE FOR
       CHILLICOTHE AND FARMINGTON.

MOZ001>031-035>038-043-044-053-054-052200-
...NORTHERN AND WESTERN MISSOURI...

CITY           SKY/WX    TMP DP  RH WIND       PRES   REMARKS
KANSAS CTY INT MOSUNNY   51  32  48 S18G24    29.73F
KANSAS C DTWN  SUNNY     53  35  50 S14       29.75F
LEE`S SUMMIT   SUNNY     50  35  56 SE12      29.76F
ST JOSEPH      SUNNY     51  36  56 S15       29.74F
CHILLICOTHE      N/A     50  36  58 S9        29.81F
KIRKSVILLE     CLOUDY    39  38  96 SE8       29.85F FOG

$$
MOZ066>068-077>081-088>096-101>105-052200-
...SOUTHWEST MISSOURI...

CITY           SKY/WX    TMP DP  RH WIND       PRES   REMARKS
SPRINGFIELD    CLOUDY    44  36  73 SE10      29.79F
JOPLIN         CLOUDY    47  38  71 SE10      29.77F
BRANSON        PTSUNNY   43  37  81 MISG      29.80F

$$
MOZ032>034-039>042-045>050-055>058-069>072-052200-
...CENTRAL MISSOURI...

CITY           SKY/WX    TMP DP  RH WIND       PRES   REMARKS
COLUMBIA       MOSUNNY   45  38  76 SE9       29.83F
JEFFERSON CITY MOSUNNY   47  37  68 SE9       29.84F
ROLLA          MOSUNNY   46  34  62 E12       29.83F
SEDALIA        MOSUNNY   50  33  52 SE12      29.80F
WHITEMAN AFB   PTSUNNY   50  37  61 S12       29.78F
WARRENSBURG    SUNNY     50  34  53 SE13      29.79F
OSAGE BEACH    CLOUDY    47  35  63 SE6       29.83

$$
MOZ051-052-059>065-052200-
...EAST CENTRAL MISSOURI...

CITY           SKY/WX    TMP DP  RH WIND       PRES   REMARKS
ST LOUIS INTL  PTSUNNY   46  34  62 SE12      29.92F
SPIRIT OF STL  MOSUNNY   46  37  71 E10       29.91F
ST CHARLES     MOSUNNY   45  37  73 SE10      29.91F

$$
MOZ072>076-082>087-097>100-106>115-052200-
...SOUTH CENTRAL AND SOUTHEAST MISSOURI...

CITY           SKY/WX    TMP DP  RH WIND       PRES   REMARKS
CAPE GIRARDEAU CLOUDY    43  35  73 E9        29.92F
FARMINGTON     MOSUNNY   47  34  60 E9        29.88F
POPLAR BLUFF   CLOUDY    43  38  82 E8        29.91F
WEST PLAINS    CLOUDY    46  35  65 SE7       29.84F

$$


USA.gov is the U.S. government's official web portal to all federal, state and local government web resources and services.